Hourly Weather Barranco de Loba

Today, 19 April, Monday

Time Temperature Precipitation Wind Pressure Humidity
00:00 +25°C° 0.1 mm 1 mps 755 mmHg 94%
01:00 +23°C° 0.1 mm 0 mps 755 mmHg 94%
02:00 +23°C° 0.1 mm 0 mps 755 mmHg 95%
03:00 +23°C° 0.1 mm 0 mps 755 mmHg 95%
04:00 +23°C° 0.1 mm 0 mps 755 mmHg 96%
05:00 +23°C° 0 mm 0 mps 756 mmHg 93%
06:00 +24°C° 0 mm 0 mps 756 mmHg 91%
07:00 +24°C° 0 mm 0 mps 757 mmHg 88%
08:00 +26°C° 0 mm 0 mps 757 mmHg 82%
09:00 +27°C° 0 mm 0 mps 757 mmHg 75%
10:00 +29°C° 0 mm 0 mps 757 mmHg 69%
11:00 +30°C° 0 mm 0 mps 756 mmHg 65%
12:00 +33°C° 0 mm 1 mps 756 mmHg 60%
13:00 +34°C° 0 mm 1 mps 755 mmHg 56%
14:00 +34°C° 0 mm 1 mps 754 mmHg 57%
15:00 +34°C° 0 mm 1 mps 754 mmHg 58%
16:00 +34°C° 0 mm 2 mps 753 mmHg 59%
17:00 +32°C° 0 mm 1 mps 753 mmHg 67%
18:00 +30°C° 0 mm 1 mps 754 mmHg 75%
19:00 +28°C° 0 mm 1 mps 754 mmHg 84%
20:00 +27°C° 0.6 mm 1 mps 755 mmHg 87%
21:00 +27°C° 0.6 mm 1 mps 755 mmHg 91%
22:00 +26°C° 0.6 mm 1 mps 756 mmHg 94%
23:00 +26°C° 0.2 mm 1 mps 756 mmHg 95%

Tomorrow, 20 April, Tuesday

Time Temperature Precipitation Wind Pressure Humidity
00:00 +26°C° 0.2 mm 1 mps 755 mmHg 95%
01:00 +23°C° 0.2 mm 0 mps 755 mmHg 96%
02:00 +23°C° 0.4 mm 0 mps 755 mmHg 96%
03:00 +23°C° 0.4 mm 0 mps 755 mmHg 97%
04:00 +23°C° 0.4 mm 0 mps 755 mmHg 97%
05:00 +24°C° 0.1 mm 0 mps 756 mmHg 96%
06:00 +24°C° 0.1 mm 0 mps 756 mmHg 95%
07:00 +24°C° 0.1 mm 0 mps 757 mmHg 94%
08:00 +26°C° 0.4 mm 0 mps 757 mmHg 88%
09:00 +27°C° 0.4 mm 0 mps 757 mmHg 82%
10:00 +30°C° 0.4 mm 1 mps 757 mmHg 77%
11:00 +32°C° 0.1 mm 1 mps 756 mmHg 68%
12:00 +33°C° 0.1 mm 1 mps 756 mmHg 60%
13:00 +35°C° 0.1 mm 1 mps 755 mmHg 52%
14:00 +35°C° 0 mm 1 mps 754 mmHg 52%
15:00 +34°C° 0 mm 1 mps 754 mmHg 53%
16:00 +35°C° 0 mm 2 mps 754 mmHg 53%
17:00 +32°C° 0.1 mm 1 mps 754 mmHg 63%
18:00 +30°C° 0.1 mm 1 mps 754 mmHg 74%
19:00 +27°C° 0.1 mm 1 mps 755 mmHg 84%
20:00 +27°C° 0.2 mm 1 mps 755 mmHg 86%
21:00 +26°C° 0.2 mm 1 mps 756 mmHg 89%
22:00 +24°C° 0.2 mm 0 mps 756 mmHg 92%
23:00 +24°C° 0.4 mm 0 mps 756 mmHg 93%

Day after tomorrow, 21 April, Wednesday

Time Temperature Precipitation Wind Pressure Humidity
00:00 +23°C° 0.4 mm 0 mps 756 mmHg 95%
01:00 +23°C° 0.4 mm 0 mps 755 mmHg 96%
02:00 +23°C° 0.1 mm 0 mps 755 mmHg 97%
03:00 +23°C° 0.1 mm 0 mps 755 mmHg 97%
04:00 +23°C° 0.1 mm 0 mps 755 mmHg 97%
05:00 +23°C° 0.2 mm 0 mps 756 mmHg 96%
06:00 +24°C° 0.2 mm 0 mps 756 mmHg 94%
07:00 +26°C° 0.2 mm 1 mps 757 mmHg 93%
08:00 +26°C° 0.5 mm 0 mps 757 mmHg 84%
09:00 +28°C° 0.5 mm 0 mps 757 mmHg 76%
10:00 +30°C° 0.5 mm 0 mps 757 mmHg 67%
11:00 +33°C° 0.1 mm 1 mps 756 mmHg 61%
12:00 +34°C° 0.1 mm 1 mps 755 mmHg 55%
13:00 +36°C° 0.1 mm 1 mps 755 mmHg 48%
14:00 +35°C° 0 mm 1 mps 754 mmHg 49%
15:00 +35°C° 0 mm 1 mps 753 mmHg 49%
16:00 +35°C° 0 mm 1 mps 753 mmHg 50%
17:00 +33°C° 0 mm 1 mps 753 mmHg 57%
18:00 +31°C° 0 mm 1 mps 753 mmHg 64%
19:00 +30°C° 0 mm 1 mps 754 mmHg 71%
20:00 +29°C° 0.4 mm 1 mps 754 mmHg 77%
21:00 +28°C° 0.4 mm 1 mps 755 mmHg 83%
22:00 +27°C° 0.4 mm 1 mps 755 mmHg 89%
23:00 +26°C° 0.7 mm 1 mps 755 mmHg 91%

22 April, Thursday

Time Temperature Precipitation Wind Pressure Humidity
00:00 +26°C° 0.7 mm 1 mps 755 mmHg 94%
01:00 +25°C° 0.7 mm 1 mps 755 mmHg 96%
02:00 +25°C° 0.1 mm 1 mps 755 mmHg 96%
03:00 +25°C° 0.1 mm 1 mps 755 mmHg 97%
04:00 +25°C° 0.1 mm 1 mps 755 mmHg 97%
05:00 +23°C° 0.3 mm 0 mps 755 mmHg 96%
06:00 +24°C° 0.3 mm 0 mps 756 mmHg 95%
07:00 +24°C° 0.3 mm 0 mps 756 mmHg 93%
08:00 +26°C° 0 mm 0 mps 756 mmHg 83%
09:00 +31°C° 0 mm 1 mps 756 mmHg 72%
10:00 +33°C° 0 mm 1 mps 756 mmHg 61%
11:00 +34°C° 0 mm 1 mps 756 mmHg 57%
12:00 +35°C° 0 mm 1 mps 755 mmHg 52%
13:00 +36°C° 0 mm 1 mps 754 mmHg 48%
14:00 +36°C° 0 mm 1 mps 753 mmHg 48%
15:00 +35°C° 0 mm 1 mps 752 mmHg 49%
16:00 +35°C° 0 mm 1 mps 752 mmHg 49%
17:00 +33°C° 0 mm 1 mps 752 mmHg 57%
18:00 +31°C° 0 mm 1 mps 753 mmHg 65%
19:00 +29°C° 0 mm 1 mps 753 mmHg 73%
20:00 +29°C° 0.1 mm 1 mps 754 mmHg 77%
21:00 +28°C° 0.1 mm 1 mps 754 mmHg 80%
22:00 +27°C° 0.1 mm 1 mps 755 mmHg 84%
23:00 +27°C° 0.8 mm 1 mps 755 mmHg 88%

23 April, Friday

Time Temperature Precipitation Wind Pressure Humidity
00:00 +26°C° 0.8 mm 1 mps 755 mmHg 92%
01:00 +24°C° 0.8 mm 0 mps 755 mmHg 95%
02:00 +23°C° 0.5 mm 0 mps 754 mmHg 96%
03:00 +23°C° 0.5 mm 0 mps 754 mmHg 96%
04:00 +23°C° 0.5 mm 0 mps 754 mmHg 97%
05:00 +24°C° 0 mm 0 mps 755 mmHg 96%
06:00 +24°C° 0 mm 0 mps 755 mmHg 94%
07:00 +25°C° 0 mm 0 mps 756 mmHg 93%
08:00 +26°C° 0.3 mm 0 mps 756 mmHg 85%
09:00 +28°C° 0.3 mm 0 mps 756 mmHg 76%
10:00 +30°C° 0.3 mm 0 mps 756 mmHg 68%
11:00 +32°C° 0 mm 0 mps 755 mmHg 61%
12:00 +35°C° 0 mm 1 mps 754 mmHg 54%
13:00 +36°C° 0 mm 1 mps 753 mmHg 47%
14:00 +36°C° 0 mm 1 mps 753 mmHg 47%
15:00 +36°C° 0 mm 1 mps 752 mmHg 47%
16:00 +36°C° 0 mm 1 mps 751 mmHg 48%
17:00 +34°C° 0 mm 1 mps 752 mmHg 55%
18:00 +32°C° 0 mm 1 mps 752 mmHg 63%
19:00 +30°C° 0 mm 1 mps 752 mmHg 71%
20:00 +29°C° 0.2 mm 1 mps 753 mmHg 76%
21:00 +28°C° 0.2 mm 1 mps 754 mmHg 80%
22:00 +27°C° 0.2 mm 1 mps 754 mmHg 85%
23:00 +27°C° 0.4 mm 1 mps 754 mmHg 88%

24 April, Saturday

Time Temperature Precipitation Wind Pressure Humidity
00:00 +24°C° 0.4 mm 0 mps 754 mmHg 91%
01:00 +24°C° 0.4 mm 0 mps 754 mmHg 93%
02:00 +24°C° 0 mm 0 mps 754 mmHg 94%
03:00 +24°C° 0 mm 0 mps 754 mmHg 95%
04:00 +24°C° 0 mm 0 mps 753 mmHg 96%
05:00 +24°C° 0 mm 0 mps 754 mmHg 94%
06:00 +25°C° 0 mm 0 mps 754 mmHg 92%
07:00 +25°C° 0 mm 0 mps 755 mmHg 91%
08:00 +27°C° 0.2 mm 0 mps 755 mmHg 81%
09:00 +31°C° 0.2 mm 1 mps 755 mmHg 72%
10:00 +33°C° 0.2 mm 1 mps 755 mmHg 63%
11:00 +35°C° 0 mm 1 mps 754 mmHg 57%
12:00 +36°C° 0 mm 1 mps 754 mmHg 51%
13:00 +37°C° 0 mm 1 mps 753 mmHg 45%
14:00 +37°C° 0 mm 1 mps 752 mmHg 46%
15:00 +36°C° 0 mm 1 mps 751 mmHg 47%
16:00 +37°C° 0 mm 2 mps 751 mmHg 48%
17:00 +35°C° 0 mm 2 mps 751 mmHg 57%
18:00 +32°C° 0 mm 1 mps 752 mmHg 66%
19:00 +30°C° 0 mm 1 mps 752 mmHg 76%
20:00 +29°C° 0.4 mm 1 mps 753 mmHg 80%
21:00 +28°C° 0.4 mm 1 mps 754 mmHg 84%
22:00 +27°C° 0.4 mm 1 mps 754 mmHg 88%
23:00 +27°C° 0.6 mm 1 mps 754 mmHg 90%
Show more